Location: Härggis
(46.9540°N, 8.4897°E)
Time: 11:39:33
(UTC+00:00)

SL-16 R/B - Pass Details

Date: 03 October 2022
Orbit: 985 x 1007 km, 99.6° (Epoch: 26 November)

Event Time Altitude Azimuth Distance (km) Brightness Sun altitude
Exits shadow 02:33:20 13° 324° (NW) 2,589 4.6 -29.5°
Drops below altitude 10° 02:33:55 10° 327° (NNW) 2,774 4.8 -29.4°
Sets 02:36:43 0° 337° (NNW) 3,731 5.6 -29.0°
